Regional Weather Roundup
Issued by NWS

Home | Current Version | Previous Version | Graphics & Text | Print | Product List | Glossary On
Versions: 1 2 3 4 5 6 7 8 9 10 11 12 13 14 15 16 17 18 19 20 21 22 23 24 25 26 27 28 29 30 31 32 33 34 35 36 37 38 39 40 41 42 43 44 45 46 47 48 49 50
000
ASUS43 KDTX 061210
RWRMI
MICHIGAN HOURLY REGIONAL WEATHER ROUNDUP
NATIONAL WEATHER SERVICE DETROIT/PONTIAC MI
800 AM EDT FRI MAY 06 2016

NOTE: "FAIR" INDICATES FEW OR NO CLOUDS BELOW 12,000 FEET WITH NO
SIGNIFICANT WEATHER AND/OR OBSTRUCTION TO VISIBILITY.

MIZ047>049-052>055-059>063-066>070-074>076-081>083-061300-
SOUTHEAST LOWER MICHIGAN

CITY           SKY/WX    TMP DP  RH WIND       PRES   REMARKS
ADRIAN         SUNNY     49  43  80 CALM      29.96R
6HR MIN TEMP:  44; 6HR MAX TEMP:  53;

ALMA           MOSUNNY   43  43 100 CALM      29.96S
BAD AXE        SUNNY     40  39  97 CALM      29.96R
CARO           SUNNY     41  39  92 CALM      29.95R
DETROIT CITY   SUNNY     52  39  61 N7        29.95R
6HR MIN TEMP:  44; 6HR MAX TEMP:  52;

DETROIT        MOSUNNY   53  39  59 CALM      29.95R
6HR MIN TEMP:  46; 6HR MAX TEMP:  53;

FLINT          SUNNY     46  41  82 CALM      29.97R
6HR MIN TEMP:  39; 6HR MAX TEMP:  51;

GROSSE ILE     SUNNY     52  39  62 N6        29.93R
HILLSDALE      SUNNY     45  40  84 NW3       29.96R
HOWELL         SUNNY     46  43  91 W5        29.96R
6HR MIN TEMP:  40; 6HR MAX TEMP:  47;


CITY           SKY/WX    TMP DP  RH WIND       PRES   REMARKS
JACKSON        SUNNY     45  43  93 CALM      29.96R
6HR MIN TEMP:  39; 6HR MAX TEMP:  48;

LAMBERTVILLE   SUNNY     52  43  73 CALM      29.95R
6HR MIN TEMP:  41; 6HR MAX TEMP:  52;

LANSING        SUNNY     46  41  82 CALM      29.97R
6HR MIN TEMP:  41; 6HR MAX TEMP:  47;

LAPEER         FAIR      41  40  93 CALM      29.96R
6HR MIN TEMP:  36; 6HR MAX TEMP:  41;

MASON          SUNNY     44  43  96 CALM      29.97R
MONROE         SUNNY     50  42  72 N5        29.94R
6HR MIN TEMP:  39; 6HR MAX TEMP:  51;

MT. CLEMENS    SUNNY     50  41  71 N6        29.93R
6HR MIN TEMP:  43; 6HR MAX TEMP:  50;

PONTIAC        MOSUNNY   50  43  77 CALM      29.94R
6HR MIN TEMP:  41; 6HR MAX TEMP:  50;

PORT HOPE        N/A     47  41  80 NW5       29.94R
6HR MIN TEMP:  39; 6HR MAX TEMP:  47;

PORT HURON     SUNNY     48  41  76 N3        29.94S
TRI CITIES     SUNNY     48  42  80 W3        29.96R
6HR MIN TEMP:  42; 6HR MAX TEMP:  48;

MIDLAND        FAIR      42  42  99 CALM      29.95R
6HR MIN TEMP:  36; 6HR MAX TEMP:  42;

TROY           SUNNY     54  40  59 N6        29.95S
SAGINAW HB     SUNNY     45  43  93 CALM      29.96R
$$
MIZ043>046-050>051-056>058-064>065-071>073-077>080-061300-
SOUTHWEST LOWER MICHIGAN

CITY           SKY/WX    TMP DP  RH WIND       PRES   REMARKS
BATTLE CREEK   SUNNY     45  38  76 CALM      29.98R
6HR MIN TEMP:  41; 6HR MAX TEMP:  47;

BENTON HARBOR  SUNNY     40  38  93 CALM      30.00R
6HR MIN TEMP:  34; 6HR MAX TEMP:  40;

BIG RAPIDS     SUNNY     38  36  89 CALM      29.96R
6HR MIN TEMP:  35; 6HR MAX TEMP:  41;

COLDWATER      SUNNY     44  40  86 W3        29.98R
6HR MIN TEMP:  39; 6HR MAX TEMP:  47;

FREMONT        FAIR      41  40  99 CALM      29.97R
6HR MIN TEMP:  35; 6HR MAX TEMP:  41;

HOLLAND        MOSUNNY  N/A N/A N/A W3        29.99R
GRAND RAPIDS   MOSUNNY   45  38  76 SW3       29.98R
6HR MIN TEMP:  41; 6HR MAX TEMP:  50;

IONIA          FAIR      45  39  78 W5        29.96R
6HR MIN TEMP:  41; 6HR MAX TEMP:  50;

KALAMAZOO      SUNNY     43  37  79 CALM      29.99R
6HR MIN TEMP:  38; 6HR MAX TEMP:  45;

LUDINGTON      SUNNY     44  40  87 CALM      29.95S
6HR MIN TEMP:  35; 6HR MAX TEMP:  44;

MARSHALL       SUNNY     45  40  82 CALM      29.97R
6HR MIN TEMP:  39; 6HR MAX TEMP:  46;

MOUNT PLEASANT SUNNY     46  44  93 CALM      29.96R
6HR MIN TEMP:  39; 6HR MAX TEMP:  46;

MUSKEGON       PTSUNNY   43  39  86 CALM      29.98R
6HR MIN TEMP:  36; 6HR MAX TEMP:  43;

SOUTH HAVEN    SUNNY     39  39  99 CALM      29.99S
$$
MIZ016>042-061300-
NORTHERN LOWER MICHIGAN

CITY           SKY/WX    TMP DP  RH WIND       PRES   REMARKS
BEAVER ISLAND  SUNNY     50  38  64 S5        29.91R
6HR MIN TEMP:  32; 6HR MAX TEMP:  50;

BELLAIRE       SUNNY     38  37  95 CALM      29.95R
CADILLAC       SUNNY     39  38  94 CALM      29.95R
CHARLEVOIX     SUNNY     43  38  82 SE3       29.96R
FRANKFORT      SUNNY     42  40  89 CALM      29.93S
GRAYLING       SUNNY     38  36  92 CALM      29.95R
6HR MIN TEMP:  32; 6HR MAX TEMP:  38;

HARBOR SPRINGS SUNNY     44  38  77 CALM      29.94R
MANISTEE       SUNNY     37  34  87 E6        29.95S WCI  33
OSCODA         SUNNY     45  40  83 CALM      29.95R
6HR MIN TEMP:  33; 6HR MAX TEMP:  45;

ROGERS CITY    SUNNY     46  38  74 CALM      29.94R
$$
MIZ007>008-015-061300-
EASTERN UPPER MICHIGAN

CITY           SKY/WX    TMP DP  RH WIND       PRES   REMARKS
KINROSS          N/A     45  37  76 S5        29.91S
6HR MIN TEMP:  41; 6HR MAX TEMP:  45;

MACKINAC ISLAN SUNNY     46  35  65 SW3       29.92S
6HR MIN TEMP:  39; 6HR MAX TEMP:  46;

NEWBERRY       SUNNY     46  38  74 S9        29.89R
6HR MIN TEMP:  39; 6HR MAX TEMP:  46;

MUNISING         N/A     50  40  68 S12       29.83F
6HR MIN TEMP:  47; 6HR MAX TEMP:  51;

$$
MIZ004>006-011>014-085-061300-
CENTRAL UPPER MICHIGAN

CITY           SKY/WX    TMP DP  RH WIND       PRES   REMARKS
MANISTIQUE     SUNNY     43  40  89 S6        29.89S
6HR MIN TEMP:  39; 6HR MAX TEMP:  43;

ESCANABA       CLOUDY    48  43  81 S5        29.87S
6HR MIN TEMP:  41; 6HR MAX TEMP:  48;

MENOMINEE      SUNNY     52  43  71 SE7       29.89R
6HR MIN TEMP:  48; 6HR MAX TEMP:  52;

SAWYER-GWINN   SUNNY     43  37  81 SW8       29.84S
$$
MIZ001>003-009>011-084-061300-
WESTERN UPPER MICHIGAN

CITY           SKY/WX    TMP DP  RH WIND       PRES   REMARKS
COPPER HARBOR    N/A     54  37  52 VRB7      29.76R
6HR MIN TEMP:  50; 6HR MAX TEMP:  55;

IRONWOOD       SUNNY     57  43  58 SW5       29.78S
6HR MIN TEMP:  55; 6HR MAX TEMP:  61;

$$

ABBREVIATIONS USED IN REMARKS
   TC - TEMPERATURE IN CELSIUS
  WCI - WIND CHILL INDEX
   HX - HEAT INDEX
  VSB - VISIBILITY




USA.gov is the U.S. government's official web portal to all federal, state and local government web resources and services.